User: anonymous   Login
Location: Bosmont
(49.7318°N, 3.8587°E)
Time: 12:44:25
(UTC+00:00)
Language:

METEOR 2-8 DEB - Orbit

View from above orbital plane
View from above orbital plane
View from above satellite
View from above satellite

Ground track
Ground track

The orbit data is extracted from the following two-line orbital elements,

1 36319U 82025D   24051.59558957  .00006823  00000-0  31343-2 0  9999
2 36319  82.5338 172.7184 0021584 344.3925  15.6588 14.20983510 73997
Epoch (UTC): 20 February 2024 14:17:38
Eccentricity: 0.0021584
inclination: 82.5338°
perigee height: 806 km
apogee height: 837 km
right ascension of ascending node: 172.7184°
argument of perigee: 344.3925°
revolutions per day: 14.20983510
mean anomaly at epoch: 15.6588°
orbit number at epoch: 7399

The dashed part of the orbit path shows where the satellite is in the earth's shadow,  

DLR